[[{"header":{"parameterUnit":"m.s-1","parameterCategory":1,"la1":30.2991,"la2":30.254,"lo1":-89.0895,"lo2":-89.0444,"dy":0.0017,"dx":0.0017,"nx":28,"ny":28,"refTime":"2023-10-07T09:00:00:Z","depth":0,"parameterNumber":2,"parameterNumberName":"U-component_of_WINDS"},"data":[0,0,0,0,0,0,0,0,0,0,0,0,0,0,0,0,0,0,0,0,0,0,0,0,0,0,0,0,0,0,0,0,0,0,0,0,0,0,0,0,0,0,0,0,0,0,0,0,0,0,0,0,0,0,0,0,0,0,-0.9794,-0.9794,0,-0.9796,-0.9796,-0.9796,-0.9754,-0.9753,-0.9752,-0.9751,-0.9754,-0.9755,-0.9756,0,0,0,0,0,0,0,0,0,0,0,0,0,-0.9755,-0.9756,-0.9794,-0.9794,-0.9794,-0.9796,-0.9796,-0.9796,-0.9754,-0.9753,-0.9752,-0.975,-0.9753,-0.9755,-0.9756,0,0,0,0,0,0,0,0,0,0,0,0,0,-0.9766,-0.9756,-0.9794,-0.9774,-0.9772,-0.9796,-0.9796,-0.9796,-0.9755,-0.9753,-0.9751,-0.975,-0.9753,-0.9755,-0.9756,-0.9801,0,0,-0.9762,-0.9762,0,0,0,0,0,0,0,0,-0.9765,-0.9768,-0.9777,-0.9775,-0.9773,-0.9773,-0.9783,-0.9798,-0.9755,-0.9761,-0.9751,-0.9749,-0.9762,-0.9763,-0.9767,-0.9801,-0.9801,-0.9762,-0.9763,-0.9763,-0.9764,0,0,0,0,0,0,0,-0.9765,-0.9767,-0.9795,-0.9777,-0.9775,-0.9764,-0.9764,-0.9786,-0.9771,-0.9761,-0.9757,-0.9758,-0.976,-0.9765,-0.9766,-0.9801,-0.9762,-0.9763,-0.9764,-0.9765,-0.9873,-0.9875,0,0,0,0,0,0,-0.9767,-0.9767,-0.9795,-0.9795,-0.9765,-0.9767,-0.9766,-0.9775,-0.9771,-0.9768,-0.976,-0.9756,-0.9763,-0.9765,-0.9766,-0.9819,-0.9763,-0.9765,-0.9766,-0.9871,-0.9873,-0.9875,0,0,0,0,0,0,-0.9766,-0.977,-0.9795,-0.978,-0.9783,-0.9769,-0.9779,-0.9776,-0.9781,-0.977,-0.9767,-0.9767,-0.9762,-0.9764,-0.9793,-0.9819,-0.9766,-0.9767,-0.9869,-0.9872,-0.9874,-0.9925,0,0,0,0,0,0,-0.9765,-0.977,-0.9786,-0.9781,-0.9784,-0.9821,-0.9781,-0.9777,-0.9783,-0.9779,-0.9776,-0.9774,-0.9761,-0.979,-0.9794,-0.982,-0.9769,-0.9866,-0.987,-0.9873,-0.9921,-0.9929,-0.9936,0,0,0,0,0,-0.9764,-0.98,-0.9787,-0.9791,-0.9804,-0.9823,-0.9824,-0.9808,-0.9786,-0.9803,-0.9796,-0.9774,-0.9815,-0.9794,-0.9798,-0.9824,-0.9865,-0.9869,-0.9873,-0.9917,-0.9927,-0.9936,0,0,0,0,0,0,-0.981,-0.9799,-0.9785,-0.9821,-0.9823,-0.9816,-0.9836,-0.9818,-0.9827,-0.9823,-0.9802,-0.9801,-0.9834,-0.9832,-0.9808,-0.9868,-0.9836,-0.9841,-0.9868,-0.9878,-0.9885,-0.9886,-0.977,0,0,0,0,0,-0.9824,-0.984,-0.983,-0.9862,-0.9864,-0.985,-0.9858,-0.9844,-0.9846,-0.9847,-0.9842,-0.9845,-0.9858,-0.9867,-0.9879,-0.9919,-0.9919,-0.994,-0.9947,-0.9954,-0.9959,-0.9981,-0.9991,-0.9889,-0.9889,-0.9889,0,0,-0.9854,-0.985,-0.9861,-0.9871,-0.9872,-0.9889,-0.9851,-0.9871,-0.9884,-0.985,-0.9877,-0.9874,-0.9875,-0.991,-0.9925,-0.9909,-0.9987,-0.9959,-0.9964,-0.9966,-0.9987,-0.9996,-1.0005,-0.9892,-0.9891,-0.9891,0,0,-0.9917,-0.9915,-0.9943,-0.9943,-0.9944,-0.9934,-0.9941,-0.9936,-0.9933,-0.9959,-0.9935,-0.9949,-0.9973,-0.9975,-0.9979,-1.0043,-1.0024,-1.0047,-1.0088,-1.011,-1.0118,-1.0125,-1.0149,-1.0158,-1.0052,-1.0052,-1.0053,0,-0.9954,-0.9979,-0.9959,-0.9981,-0.9986,-0.9956,-0.9984,-0.9986,-0.999,-0.9995,-0.9977,-1.0005,-1.0004,-1.004,-1.0056,-1.0059,-1.0067,-1.0049,-1.0118,-1.0125,-1.0131,-1.0154,-1.0163,-1.0055,-1.0055,-1.0055,-1.0054,0,-1.0025,-1.0042,-1.0065,-1.007,-1.0078,-1.0102,-1.0087,-1.0097,-1.0083,-1.0075,-1.0103,-1.0101,-1.0112,-1.0119,-1.0105,-1.0153,-1.0143,-1.0122,-1.009,-1.0144,-1.0166,-1.0174,-1.006,-1.0059,-1.0058,-1.0057,0,0,-1.0119,-1.0112,-1.0121,-1.0123,-1.0121,-1.0135,-1.0158,-1.0168,-1.0178,-1.0182,-1.0202,-1.0222,-1.0202,-1.0207,-1.0193,-1.0212,-1.0265,-1.0189,-1.0189,-1.0205,-1.0319,-1.0336,-1.0347,-1.0252,-1.0253,-1.0254,-1.0319,0,-1.0181,-1.0221,-1.0204,-1.0245,-1.0262,-1.0233,-1.0253,-1.0255,-1.0248,-1.0261,-1.0254,-1.0269,-1.0241,-1.0244,-1.0261,-1.0255,-1.0288,-1.025,-1.0271,-1.0272,-1.0274,-1.0358,-1.0376,-1.0437,-1.0327,-1.0329,-1.033,0,-1.026,-1.0267,-1.0311,-1.0306,-1.0313,-1.0331,-1.034,-1.0352,-1.0353,-1.0347,-1.0353,-1.0335,-1.0358,-1.0325,-1.0357,-1.0331,-1.0339,-1.0337,-1.0339,-1.0342,-1.0306,-1.0364,-1.0456,-1.0466,-1.0342,-1.0341,-1.034,0,-1.0326,-1.0346,-1.0375,-1.0378,-1.0373,-1.0387,-1.0386,-1.0385,-1.0392,-1.0399,-1.0404,-1.0414,-1.042,-1.0428,-1.0414,-1.0391,-1.0449,-1.0414,-1.0445,-1.0446,-1.046,-1.046,-1.0557,-1.0462,-1.0462,-1.0462,-1.0462,0,-1.0399,-1.0427,-1.0405,-1.0423,-1.0453,-1.0433,-1.0464,-1.0459,-1.0459,-1.0476,-1.0451,-1.0467,-1.0446,-1.0461,-1.0449,-1.0478,-1.0481,-1.0477,-1.0474,-1.0481,-1.0481,-1.0487,-1.0483,-1.0464,-1.0464,-1.0463,-1.0463,0,-1.0478,-1.0464,-1.0494,-1.0487,-1.0486,-1.0509,-1.0503,-1.052,-1.0511,-1.0533,-1.0537,-1.0523,-1.0539,-1.0525,-1.054,-1.0532,-1.0572,-1.0561,-1.0572,-1.0569,-1.0602,-1.06,-1.0707,-1.0721,-1.0616,-1.0617,-1.0618,0,-1.0527,-1.0548,-1.0543,-1.0552,-1.0553,-1.0568,-1.0575,-1.0556,-1.0565,-1.0568,-1.0584,-1.0598,-1.0608,-1.0635,-1.0627,-1.0638,-1.0629,-1.0666,-1.0631,-1.0637,-1.0632,-1.0632,-1.0634,-1.0674,-1.0675,-1.0676,-1.0677,0,-1.0615,-1.0607,-1.0618,-1.0628,-1.0638,-1.0644,-1.0649,-1.0658,-1.0638,-1.0649,-1.0665,-1.0673,-1.0688,-1.0702,-1.0711,-1.071,-1.0691,-1.0688,-1.0696,-1.0704,-1.0709,-1.0708,-1.0593,-1.0686,-1.0685,-1.0684,-1.0684,-1.0683,-1.0681,-1.0699,-1.0699,-1.0713,-1.0714,-1.0719,-1.0734,-1.0727,-1.074,-1.0751,-1.0738,-1.0758,-1.0759,-1.0769,-1.077,-1.0786,-1.077,-1.0782,-1.0785,-1.0789,-1.0794,-1.0705,-1.0787,-1.0787,-1.0786,-1.0786,-1.0786,0,-1.0769,-1.0768,-1.078,-1.0788,-1.0799,-1.0778,-1.0782,-1.0793,-1.0811,-1.0813,-1.0823,-1.0842,-1.0855,-1.0848,-1.086,-1.0874,-1.0866,-1.0878,-1.0878,-1.0878,-1.0806,-1.0799,-1.0885,-1.0885,-1.0885,-1.0885,-1.0885,-1.0885,-1.0817,-1.0846,-1.0838,-1.0868,-1.0865,-1.0884,-1.0889,-1.0893,-1.0895,-1.0917,-1.0928,-1.0922,-1.0921,-1.0933,-1.0945,-1.0942,-1.0949,-1.0965,-1.096,-1.0893,-1.0883,-1.0874,-1.0867,-1.0966,-1.0966,-1.103,-1.1031,-1.1031]},{"header":{"parameterUnit":"m.s-1","parameterCategory":1,"la1":30.2991,"la2":30.254,"lo1":-89.0895,"lo2":-89.0444,"dy":0.0017,"dx":0.0017,"nx":28,"ny":28,"refTime":"2023-10-07T09:00:00:Z","depth":0,"parameterNumber":3,"parameterNumberName":"V-component_of_WINDS"},"data":[0,0,0,0,0,0,0,0,0,0,0,0,0,0,0,0,0,0,0,0,0,0,0,0,0,0,0,0,0,0,0,0,0,0,0,0,0,0,0,0,0,0,0,0,0,0,0,0,0,0,0,0,0,0,0,0,0,0,-2.4519,-2.452,0,-2.4587,-2.4587,-2.4588,-2.4597,-2.4596,-2.4595,-2.4595,-2.4663,-2.4665,-2.4668,0,0,0,0,0,0,0,0,0,0,0,0,0,-2.4396,-2.4398,-2.4519,-2.452,-2.4521,-2.4587,-2.4588,-2.4588,-2.4597,-2.4596,-2.4595,-2.4594,-2.4662,-2.4665,-2.4668,0,0,0,0,0,0,0,0,0,0,0,0,0,-2.4455,-2.4399,-2.4519,-2.4533,-2.4535,-2.4586,-2.4588,-2.4589,-2.4597,-2.4596,-2.4595,-2.4594,-2.4661,-2.4665,-2.4668,-2.4711,0,0,-2.468,-2.4681,0,0,0,0,0,0,0,0,-2.4452,-2.446,-2.453,-2.4532,-2.4534,-2.4582,-2.4569,-2.463,-2.4597,-2.4573,-2.4595,-2.4593,-2.4637,-2.4642,-2.4657,-2.4714,-2.4717,-2.468,-2.4682,-2.4684,-2.4685,0,0,0,0,0,0,0,-2.4448,-2.4457,-2.4546,-2.4531,-2.4533,-2.4535,-2.4543,-2.4581,-2.461,-2.4575,-2.4576,-2.4584,-2.4638,-2.4654,-2.4659,-2.4718,-2.468,-2.4683,-2.4685,-2.4687,-2.4815,-2.4816,0,0,0,0,0,0,-2.4441,-2.4453,-2.4543,-2.4548,-2.449,-2.4538,-2.4547,-2.4568,-2.4609,-2.4615,-2.4585,-2.4584,-2.4648,-2.4655,-2.4661,-2.4716,-2.4684,-2.4687,-2.4689,-2.4814,-2.4815,-2.4817,0,0,0,0,0,0,-2.4438,-2.4449,-2.4541,-2.4501,-2.4513,-2.4542,-2.4565,-2.457,-2.4586,-2.4617,-2.4622,-2.4596,-2.4648,-2.4656,-2.4699,-2.4718,-2.4689,-2.4692,-2.4812,-2.4814,-2.4816,-2.4823,0,0,0,0,0,0,-2.4435,-2.4448,-2.4464,-2.4501,-2.4515,-2.4577,-2.4566,-2.4572,-2.4592,-2.4592,-2.4628,-2.4633,-2.4647,-2.4694,-2.4703,-2.4723,-2.4695,-2.4811,-2.4813,-2.4815,-2.4822,-2.4825,-2.4828,0,0,0,0,0,-2.4431,-2.4463,-2.4465,-2.4476,-2.4536,-2.4578,-2.4586,-2.4602,-2.4593,-2.461,-2.463,-2.4632,-2.4714,-2.4698,-2.4708,-2.473,-2.481,-2.4813,-2.4815,-2.482,-2.4825,-2.4828,0,0,0,0,0,0,-2.4427,-2.4468,-2.4471,-2.4516,-2.4544,-2.458,-2.4602,-2.4606,-2.4636,-2.4635,-2.4653,-2.4661,-2.4703,-2.472,-2.4701,-2.4774,-2.4761,-2.4766,-2.4761,-2.4766,-2.4769,-2.4765,-2.4698,0,0,0,0,0,-2.4432,-2.4463,-2.4497,-2.4534,-2.4548,-2.4572,-2.4591,-2.4601,-2.463,-2.4642,-2.4665,-2.4693,-2.4725,-2.4746,-2.4777,-2.4824,-2.4833,-2.4843,-2.4847,-2.4849,-2.4854,-2.4882,-2.4888,-2.4826,-2.4825,-2.4825,0,0,-2.4442,-2.4468,-2.4487,-2.4534,-2.4557,-2.4589,-2.4582,-2.4616,-2.4641,-2.4647,-2.469,-2.4707,-2.474,-2.4785,-2.4806,-2.4801,-2.4873,-2.4853,-2.4855,-2.4858,-2.4885,-2.4891,-2.4896,-2.4827,-2.4827,-2.4827,0,0,-2.4477,-2.4499,-2.4534,-2.4557,-2.4591,-2.4607,-2.4615,-2.4651,-2.4663,-2.4706,-2.4712,-2.4741,-2.4796,-2.482,-2.4839,-2.4884,-2.4887,-2.4893,-2.4912,-2.4939,-2.4944,-2.4948,-2.4966,-2.4972,-2.4897,-2.4897,-2.4897,0,-2.4485,-2.4534,-2.455,-2.4585,-2.4607,-2.4614,-2.465,-2.4671,-2.4714,-2.4728,-2.4721,-2.4792,-2.4814,-2.4866,-2.4877,-2.4891,-2.4902,-2.489,-2.4941,-2.4946,-2.4951,-2.4968,-2.4975,-2.4898,-2.4898,-2.4898,-2.4898,0,-2.4544,-2.4578,-2.4601,-2.4644,-2.4667,-2.4702,-2.4724,-2.4746,-2.4753,-2.4771,-2.4815,-2.4842,-2.488,-2.4892,-2.49,-2.4946,-2.4942,-2.4938,-2.4926,-2.4957,-2.4974,-2.4981,-2.4899,-2.4899,-2.4899,-2.4898,0,0,-2.4579,-2.4631,-2.4639,-2.466,-2.4699,-2.4725,-2.476,-2.4798,-2.4818,-2.4847,-2.4878,-2.4924,-2.4922,-2.4943,-2.4953,-2.4977,-2.5013,-2.497,-2.4971,-2.4979,-2.5068,-2.5073,-2.508,-2.5015,-2.5016,-2.5017,-2.5066,0,-2.4621,-2.4685,-2.4701,-2.4756,-2.4789,-2.4796,-2.4827,-2.4855,-2.4872,-2.4902,-2.492,-2.4954,-2.4946,-2.496,-2.4983,-2.5004,-2.5032,-2.5,-2.5045,-2.5047,-2.5039,-2.5088,-2.5093,-2.5138,-2.5073,-2.5074,-2.5075,0,-2.4678,-2.471,-2.4768,-2.4805,-2.4819,-2.4847,-2.4883,-2.4912,-2.4943,-2.4954,-2.4979,-2.4987,-2.5024,-2.5009,-2.5062,-2.5041,-2.506,-2.5073,-2.5075,-2.5081,-2.5064,-2.5098,-2.5152,-2.516,-2.5085,-2.5084,-2.5083,0,-2.4701,-2.4758,-2.4801,-2.4818,-2.486,-2.488,-2.4899,-2.4929,-2.4951,-2.4983,-2.4998,-2.5033,-2.5053,-2.508,-2.5098,-2.5085,-2.515,-2.5136,-2.5161,-2.5161,-2.5176,-2.5175,-2.5236,-2.5185,-2.5185,-2.5185,-2.5184,0,-2.4747,-2.4783,-2.4812,-2.4839,-2.488,-2.4898,-2.4938,-2.4956,-2.4984,-2.5014,-2.5022,-2.5051,-2.5072,-2.5103,-2.5117,-2.516,-2.5168,-2.5179,-2.5182,-2.5179,-2.5178,-2.5194,-2.5192,-2.5186,-2.5186,-2.5186,-2.5185,0,-2.478,-2.4801,-2.4849,-2.4886,-2.4896,-2.4925,-2.4957,-2.4983,-2.5,-2.5039,-2.5049,-2.5076,-2.5114,-2.5134,-2.518,-2.519,-2.5239,-2.524,-2.5229,-2.5231,-2.5256,-2.5254,-2.5331,-2.5342,-2.5281,-2.5281,-2.5282,0,-2.4809,-2.4838,-2.4878,-2.49,-2.4919,-2.4953,-2.4977,-2.4995,-2.5018,-2.5057,-2.5079,-2.5118,-2.515,-2.521,-2.5233,-2.527,-2.5273,-2.5297,-2.5278,-2.5275,-2.5276,-2.5275,-2.5279,-2.5301,-2.5301,-2.5302,-2.5302,0,-2.4859,-2.4869,-2.4902,-2.4939,-2.4967,-2.4997,-2.5027,-2.5044,-2.5067,-2.5093,-2.5132,-2.5157,-2.5206,-2.5244,-2.5283,-2.5302,-2.5307,-2.5307,-2.5316,-2.5314,-2.5308,-2.5314,-2.524,-2.5306,-2.5306,-2.5305,-2.5305,-2.5305,-2.4893,-2.492,-2.4953,-2.499,-2.5014,-2.5042,-2.507,-2.5091,-2.5124,-2.5166,-2.5174,-2.5216,-2.5248,-2.53,-2.532,-2.5353,-2.5349,-2.536,-2.5363,-2.5366,-2.5369,-2.5301,-2.536,-2.536,-2.536,-2.536,-2.536,0,-2.4946,-2.4968,-2.5002,-2.5044,-2.5073,-2.5075,-2.5108,-2.5133,-2.517,-2.5199,-2.5231,-2.5277,-2.5314,-2.5341,-2.538,-2.5401,-2.5405,-2.5411,-2.5411,-2.5416,-2.537,-2.536,-2.5408,-2.5408,-2.5408,-2.5408,-2.5408,-2.5408,-2.4977,-2.5022,-2.5036,-2.5093,-2.5115,-2.5157,-2.5176,-2.5202,-2.5226,-2.5277,-2.5309,-2.5326,-2.5355,-2.5396,-2.5431,-2.5438,-2.5453,-2.5459,-2.5467,-2.5424,-2.5419,-2.5414,-2.5405,-2.5462,-2.5462,-2.551,-2.5511,-2.5511]}]]